Location: Palmerston North
(40.3500°S, 175.6170°E)
Time: 23:33:03
(UTC+12:00)

Daily predictions for brighter satellites

Satellite Brightness Start Highest point End
(mag) Time Altitude Azimuth Time Altitude Azimuth Time Altitude Azimuth
Cosmos 1844 Rocket 3.5 17:31:57 10° SSW 17:37:29 57° WNW 17:42:57 10° N
Cosmos 2278 Rocket 3.1 17:34:18 10° S 17:39:07 27° SE 17:43:54 10° ENE
NOSS 0 Rocket 4.5 17:33:47 10° N 17:39:30 39° ENE 17:45:16 10° SE
COSMOS 2428 2.8 17:39:30 10° NNW 17:45:14 86° ENE 17:51:00 10° SSE
Cosmos 1354 Rocket 4.3 17:43:30 10° S 17:48:37 45° ESE 17:53:39 10° NE
Cosmos 2360 Rocket 4.0 17:46:30 10° WNW 17:51:20 28° SW 17:56:12 10° S
Cosmos 2219 Rocket 2.5 17:45:46 10° NNW 17:51:21 70° WSW 17:57:01 10° SSE
Lacrosse 5 3.5 17:48:36 10° SSW 17:52:07 18° SSE 17:55:31 10° ESE
Cosmos 1953 Rocket 3.9 17:48:38 10° NNW 17:53:06 73° W 17:57:39 10° S
Nadezhda 4 Rocket 4.1 17:47:28 10° N 17:53:37 84° W 17:59:53 10° S
USA 276 2.2 17:50:47 10° SW 17:54:00 61° SSE 17:57:11 10° ENE
Cosmos 1092 Rocket 4.1 17:48:25 10° N 17:54:29 59° E 18:00:42 10° SSE
H-2A R/B 4.3 17:57:02 10° E 17:57:02 10° E 17:57:42 10° ENE
IRIDIUM 114 4.4 17:53:37 10° S 17:58:52 58° E 18:04:01 10° NNE
Cosmos 2058 2.9 17:55:40 10° N 17:59:43 60° E 18:03:52 10° SSE
Meteor 2-8 Rocket 4.4 17:55:03 10° S 18:01:20 75° E 18:07:28 10° NNE
SMAP 3.8 17:57:58 10° SSE 18:02:15 33° E 18:06:27 10° NNE
Atlas Centaur 2 3.6 17:58:25 10° WNW 18:03:11 32° N 18:09:00 10° ENE
Cosmos 2026 Rocket 4.2 17:58:07 10° NNE 18:04:21 57° E 18:10:37 10° SSE
COSMO-SKYMED 1 4.0 18:00:13 10° N 18:04:22 43° W 18:08:36 10° SSW
CSL-04 DEB 4.2 18:01:29 10° NNE 18:05:25 74° ESE 18:09:25 10° S
CZ-2C R/B 2.7 18:00:43 10° NNE 18:06:19 67° ESE 18:11:56 10° S
H-2A R/B 4.0 18:02:38 10° NNW 18:06:23 33° W 18:10:11 10° SSW
CENTAUR R/B 4.4 17:59:54 10° W 18:06:37 30° SW 18:12:32 10° SSE
IRIDIUM 103 4.3 18:02:41 10° S 18:08:00 71° E 18:13:13 10° N
DMSP B5D1-3 4.5 18:03:17 10° NNE 18:08:24 71° ESE 18:13:36 10° S
Cosmos 1825 2.2 18:05:58 10° N 18:09:45 84° W 18:13:37 10° S
USA 234 3.4 18:03:17 10° SE 18:09:55 79° SW 18:16:30 10° NW
Cosmos 1408 4.1 18:09:46 10° NNW 18:13:18 39° WSW 18:16:53 10° S
Cosmos 1842 Rocket 3.6 18:10:22 10° S 18:14:51 64° E 18:19:17 10° NNE
Cosmos 1980 3.8 18:09:53 10° N 18:15:27 59° ENE 18:21:04 10° SSE
Cosmos 405 Rocket 2.6 18:11:45 10° N 18:15:27 70° E 18:19:17 10° SSE
NOAA 6 4.0 18:14:13 10° SSE 18:19:23 63° ENE 18:24:28 10° N
Envisat 3.8 18:14:25 10° S 18:19:28 55° WSW 18:24:26 10° NNW
Radarsat Rocket 4.2 18:16:09 10° SSE 18:21:58 44° E 18:27:31 10° N
Cosmos 1356 3.6 18:21:43 10° NNW 18:25:07 74° W 18:28:37 10° S
MOS 1-B Rocket 4.5 18:20:12 10° NE 18:25:11 33° ESE 18:30:29 10° S
SL-16 R/B 3.3 18:23:08 10° NNE 18:27:28 23° E 18:28:38 21° E
Cosmos 1437 Rocket 2.9 18:24:16 10° S 18:27:59 45° ESE 18:31:38 10° NNE
MOS 1-B 4.4 18:23:41 10° SSE 18:29:27 55° E 18:35:10 10° N
CZ-4B R/B 3.3 18:27:25 10° NNW 18:30:10 30° W 18:32:58 10° SSW
Cosmos 2221 2.5 18:26:03 10° S 18:30:24 83° W 18:34:42 10° N
CZ-4B DEB 4.1 18:24:57 10° SSE 18:30:31 71° ENE 18:35:58 10° N
Cosmos 1606 2.7 18:31:14 10° S 18:35:02 54° E 18:38:45 10° NNE
Cosmos 1689 Rocket 1.8 18:32:29 10° NNE 18:35:20 66° ESE 18:38:14 10° S
SL-8 R/B 3.8 18:31:02 10° WNW 18:35:54 74° SSW 18:38:39 26° SE
USA 102 3.6 18:30:41 10° NE 18:37:59 50° E 18:38:00 50° E
ATLAS 3B R/B 3.0 18:30:34 10° NW 18:38:06 77° SW 18:45:30 10° SSE
Meteor 2-15 Rocket 4.4 18:36:14 10° S 18:42:26 89° W 18:48:32 10° N
Cosmos 2333 Rocket 4.2 18:39:30 10° WNW 18:44:04 24° SW 18:48:41 10° S
Cosmos 1900 4.4 18:44:19 10° SSW 18:49:23 58° ESE 18:52:13 25° NE
Cosmos 1076 Rocket 3.7 18:45:27 10° NNW 18:49:44 74° W 18:54:06 10° S
Cosmos 1461 3.6 18:46:19 10° SSW 18:50:14 37° SE 18:50:14 37° SE
Cosmos 967 Rocket 4.5 18:44:10 10° SSW 18:50:31 59° SE 18:55:13 18° NE
Cosmos 1553 Rocket 3.8 18:46:30 10° S 18:52:39 70° E 18:58:43 10° NNE
Cosmos 1777 Rocket 3.9 18:48:28 10° SSW 18:53:49 81° ESE 18:59:04 10° NNE
H-2A R/B 4.0 19:00:07 13° NNE 19:00:07 13° NNE 19:00:46 10° NNE
Cosmos 2237 Rocket 2.5 18:52:09 10° NNW 18:57:47 67° WSW 19:03:16 11° SSE
Cosmos 1809 Rocket 4.4 18:55:53 10° N 19:02:05 81° E 19:08:21 10° S
CZ-2C R/B 2.7 18:59:03 17° SSE 19:02:49 73° ENE 19:07:34 10° N
Cosmos 2151 2.8 18:59:21 10° N 19:03:35 85° E 19:05:43 29° S
CORIOLIS 4.3 18:58:27 10° S 19:03:59 79° WSW 19:09:26 10° NNW
ERS-2 2.3 19:02:12 10° N 19:05:52 71° WNW 19:09:35 10° SSW
CZ-2D R/B 4.1 19:08:10 37° NNE 19:08:10 37° NNE 19:10:41 10° N
Cosmos 1417 Rocket 4.4 19:00:55 10° S 19:07:23 78° E 19:13:43 10° N
Okean O Rocket 1.5 19:06:03 33° SSE 19:08:05 81° ENE 19:12:34 10° N
SJ 16-02 2.3 19:03:49 10° S 19:06:30 32° SSE 19:06:30 32° SSE
BREEZE-M DEB 4.4 19:08:00 10° WSW 19:09:25 17° SW 19:09:25 17° SW
Cosmos 1633 3.3 19:09:27 10° NNW 19:12:56 51° W 19:14:15 32° SSW
ATLAS CENTAUR R/B 3.8 19:10:02 10° S 19:10:36 12° S 19:10:36 12° S
Cosmos 1943 Rocket 3.6 19:13:10 10° S 19:15:55 23° SSE 19:15:55 23° SSE
Cosmos 1655 Rocket 3.9 19:14:05 10° N 19:20:23 80° E 19:26:51 10° S
Cosmos 2278 Rocket 3.2 19:17:57 10° SW 19:23:24 46° WNW 19:28:46 10° N
Cosmos 1939 Rocket 4.1 19:23:02 16° S 19:26:04 43° WSW 19:30:02 10° NW
Meteor 2-3 Rocket 3.6 19:20:33 10° N 19:26:11 89° E 19:29:41 25° S
Cosmos 2369 Rocket 4.3 19:25:12 10° S 19:25:49 12° S 19:25:49 12° S
CZ-4B R/B 3.5 19:24:35 10° S 19:29:54 63° WSW 19:35:08 10° NNW
Meteor 2-16 Rocket 4.3 19:26:26 10° N 19:32:32 75° E 19:33:54 55° SSE
H-2A R/B 3.3 19:33:35 44° WNW 19:33:35 44° WNW 19:36:34 10° NNW
Lacrosse 5 2.5 19:30:56 10° SW 19:34:45 46° SSW 19:34:45 46° SSW
Meteor 2-21 Rocket 4.5 19:32:46 10° N 19:39:01 82° W 19:45:21 10° S
Atlas Centaur 2 3.9 19:46:33 10° WNW 19:51:49 28° N 19:52:48 27° N
SL-16 R/B 3.0 20:05:42 10° NW 20:10:36 47° W 20:10:36 47° W
